Hettinger, ND

10:19 PM MDT on April 19, 2018 (GMT -0600)
Hettinger Municipal

Weather History for KHEI - March, 2014

Change the Weather History Date:

Monday, March 31, 2014

  Actual Average Record
Temperature  
Mean Temperature 11 °F -  
Max Temperature 23 °F 48 °F 80 °F (2015)
Min Temperature -1 °F 23 °F -1 °F (2014)
Degree Days  
Heating Degree Days 54 29  
Month to date heating degree days 1176 1093  
Since 1 July heating degree days 7895 7409  
Cooling Degree Days 0 0  
Month to date cooling degree days 0 0  
Year to date cooling degree days 0 0  
Moisture  
Dew Point 11 °F    
Average Humidity 82    
Maximum Humidity 92    
Minimum Humidity 73    
Precipitation  
Precipitation 0.18 in 0.04 in 0.18 in (1999)
Month to date precipitation 0.12 0.76  
Year to date precipitation 0.36 1.49  
Sea Level Pressure  
Sea Level Pressure 29.98 in    
Wind  
Wind Speed 23 mph (NNW)    
Max Wind Speed 37 mph    
Max Gust Speed 46 mph    
Visibility 3 miles    
Events Fog , Snow    
T = Trace of Precipitation, MM = Missing Value Source: NWS Daily Summary

Daily Weather History Graph

Daily Weather History Graph

Search for Another Location

Airport or City:

Astronomy

Mar. 31, 2014 Rise Set
Actual Time 6:32 AM MDT 7:17 PM MDT
Civil Twilight 6:02 AM MDT 7:48 PM MDT
Nautical Twilight 5:26 AM MDT 8:24 PM MDT
Astronomical Twilight 4:48 AM MDT 9:01 PM MDT
Moon 6:53 AM MDT (3/31) 8:44 PM MDT (3/31)
Length of Visible Light 13h 46m
Length of Day
12h 45m
New Moon, 1% of the Moon is Illuminated
Mar 31
New Moon
Apr 7
First Quarter
Apr 15
Full
Apr 22
Last Quarter
Apr 29
New

Hourly Weather History & Observations

Time (MDT) Temp. Windchill Dew Point Humidity Pressure Visibility Wind Dir Wind Speed Gust Speed Precip Events Conditions
12:08 AM 25.0 °F 8.9 °F 21.9 °F 88% 29.70 in 1.2 mi NE 26.5 mph 39.1 mph 0.00 in Snow Light Snow
12:16 AM 25.0 °F 8.6 °F 21.0 °F 85% 29.71 in 3.0 mi NE 27.6 mph 38.0 mph 0.01 in Snow Light Snow
12:47 AM 23.0 °F 5.7 °F 19.4 °F 86% 29.72 in 1.8 mi NE 28.8 mph 38.0 mph 0.01 in Snow Light Snow
12:53 AM 23.0 °F 5.1 °F 19.9 °F 88% 29.76 in 1.2 mi NNE 31.1 mph 42.6 mph 0.01 in Snow Light Snow
1:33 AM 21.0 °F 2.4 °F 18.0 °F 88% 29.71 in 0.8 mi NNE 31.1 mph 41.4 mph 0.02 in Snow Light Snow
1:53 AM 19.9 °F 0.7 °F 17.1 °F 89% 29.77 in 0.5 mi NNE 32.2 mph 39.1 mph 0.04 in Fog , Snow Snow
2:53 AM 18.0 °F -1.4 °F 14.0 °F 84% 29.80 in 0.8 mi NNE 29.9 mph 39.1 mph 0.05 in   Mist
3:53 AM 16.0 °F -4.4 °F 12.0 °F 84% 29.84 in 0.5 mi North 31.1 mph 40.3 mph 0.01 in Fog Light Freezing Fog
4:53 AM 15.1 °F -5.9 °F 10.9 °F 84% 29.85 in 0.5 mi North 32.2 mph 39.1 mph N/A Fog Light Freezing Fog
5:25 AM 15.1 °F -5.9 °F 10.9 °F 84% 29.80 in 0.2 mi North 32.2 mph 46.0 mph 0.01 in Fog , Snow Heavy Snow
5:33 AM 15.1 °F -4.0 °F 10.9 °F 84% 29.80 in 0.2 mi North 25.3 mph 40.3 mph 0.01 in Fog , Snow Heavy Snow
5:53 AM 15.1 °F -5.0 °F 10.9 °F 84% 29.89 in 0.2 mi North 28.8 mph 39.1 mph 0.03 in Fog , Snow Heavy Snow
6:01 AM 15.1 °F -5.3 °F 10.9 °F 84% 29.82 in 0.5 mi North 29.9 mph 39.1 mph 0.01 in Fog , Snow Snow
6:53 AM 12.0 °F -9.8 °F 8.1 °F 84% 29.94 in 0.2 mi North 31.1 mph 42.6 mph 0.03 in Fog Light Freezing Fog
7:53 AM 10.9 °F -11.3 °F 8.1 °F 88% 29.98 in 0.2 mi North 31.1 mph 41.4 mph N/A Fog Light Freezing Fog
8:53 AM 12.0 °F -9.5 °F 8.1 °F 84% 30.01 in 0.2 mi North 29.9 mph 39.1 mph N/A Fog Light Freezing Fog
9:53 AM 12.0 °F -10.1 °F 8.1 °F 84% 30.03 in 0.2 mi North 32.2 mph 44.9 mph 0.00 in Fog , Snow Heavy Snow
10:53 AM 14.0 °F -7.4 °F 10.0 °F 84% 30.05 in 0.2 mi NNW 32.2 mph 41.4 mph 0.00 in Fog , Snow Snow
11:11 AM 15.1 °F -5.0 °F 10.9 °F 84% 29.94 in 0.5 mi NNW 28.8 mph 40.3 mph 0.00 in Fog , Snow Snow
11:53 AM 15.1 °F -4.4 °F 10.0 °F 80% 30.08 in 0.5 mi NNW 26.5 mph 39.1 mph 0.00 in Snow Snow
12:06 PM 15.1 °F -5.9 °F 10.9 °F 84% 29.96 in 0.2 mi NNW 32.2 mph 41.4 mph 0.00 in Fog , Snow Snow
12:13 PM 15.1 °F -4.7 °F 10.9 °F 84% 29.96 in 0.5 mi NNW 27.6 mph 39.1 mph 0.00 in Fog , Snow Snow
12:37 PM 16.0 °F -4.4 °F 12.0 °F 84% 29.96 in 0.5 mi NNW 31.1 mph 38.0 mph 0.00 in Fog , Snow Snow
12:53 PM 16.0 °F -4.7 °F 10.9 °F 81% 30.09 in 0.5 mi NNW 32.2 mph 39.1 mph 0.00 in Snow Snow
1:53 PM 17.1 °F -2.0 °F 12.0 °F 81% 30.10 in 0.8 mi NNW 27.6 mph 38.0 mph 0.00 in Snow Light Snow
2:01 PM 17.1 °F -2.0 °F 12.0 °F 81% 29.97 in 1.2 mi NNW 27.6 mph 39.1 mph 0.00 in Snow Light Snow
2:26 PM 18.0 °F -1.1 °F 10.9 °F 74% 29.98 in 2.0 mi NNW 28.8 mph 38.0 mph 0.00 in   Overcast
2:44 PM 19.0 °F 0.0 °F 12.0 °F 74% 29.99 in 3.0 mi NNW 29.9 mph 34.5 mph 0.00 in Snow Blowing Snow
2:53 PM 19.9 °F 2.5 °F 12.0 °F 71% 30.13 in 5.0 mi NW 25.3 mph 34.5 mph 0.00 in Snow Blowing Snow
3:53 PM 19.9 °F 2.8 °F 12.9 °F 74% 30.15 in 9.0 mi NNW 24.2 mph 33.4 mph 0.01 in   Clear
4:53 PM 19.9 °F 3.5 °F 12.0 °F 71% 30.17 in 10.0 mi NW 21.9 mph - N/A   Clear
5:53 PM 19.0 °F 2.7 °F 12.0 °F 74% 30.18 in 10.0 mi NW 20.7 mph - N/A   Clear
6:53 PM 17.1 °F 1.5 °F 10.0 °F 74% 30.20 in 10.0 mi NW 17.3 mph - N/A   Clear
7:53 PM 14.0 °F 0.5 °F 9.0 °F 80% 30.22 in 10.0 mi NW 11.5 mph - N/A   Clear
8:53 PM 9.0 °F -4.2 °F 5.0 °F 84% 30.25 in 10.0 mi WNW 9.2 mph - N/A   Clear
9:53 PM 7.0 °F -5.7 °F 3.0 °F 84% 30.24 in 10.0 mi WNW 8.1 mph - N/A   Clear
10:53 PM 6.1 °F -4.3 °F 1.9 °F 83% 30.23 in 10.0 mi WNW 5.8 mph - N/A   Clear
11:53 PM 6.1 °F -4.3 °F 1.9 °F 83% 30.23 in 10.0 mi NNW 5.8 mph - N/A   Clear